Glendale Luke AFB, AZ

6:21 AM MST on December 06, 2019 (GMT -0700)
Luke Air Force Base

Weather History for KLUF - August, 2019

Change the Weather History Date:

Wednesday, August 28, 2019

  Actual Average Record
Temperature  
Mean Temperature 92 °F -  
Max Temperature 107 °F 105 °F 114 °F (1981)
Min Temperature 76 °F 72 °F 59 °F (1920)
Cooling Degree Days 26    
Growing Degree Days 42 (Base 50)    
Moisture  
Dew Point 62 °F    
Average Humidity 37    
Maximum Humidity 90    
Minimum Humidity 19    
Precipitation  
Precipitation 0.09 in - - ()
Sea Level Pressure  
Sea Level Pressure 29.82 in    
Wind  
Wind Speed 14 mph (SSW)    
Max Wind Speed 34 mph    
Max Gust Speed 41 mph    
Visibility 9 miles    
Events Rain , Thunderstorm    
Averages and records for this station are not official NWS values.
T = Trace of Precipitation, MM = Missing Value Source: NWS Daily Summary

Daily Weather History Graph

Daily Weather History Graph

Search for Another Location

Airport or City:

Astronomy

Aug. 28, 2019 Rise Set
Actual Time 6:00 AM MST 7:00 PM MST
Civil Twilight 5:35 AM MST 7:25 PM MST
Nautical Twilight 5:04 AM MST 7:55 PM MST
Astronomical Twilight 4:33 AM MST 8:27 PM MST
Moon 3:46 AM MST (8/28) 6:07 PM MST (8/28)
Length of Visible Light 13h 50m
Length of Day
12h 59m
Waning Crescent, 4% of the Moon is Illuminated
Aug 28
Waning Crescent
Aug 30
New
Sep 5
First Quarter
Sep 13
Full
Sep 21
Last Quarter

Hourly Weather History & Observations

Time (MST) Temp. Heat Index Dew Point Humidity Pressure Visibility Wind Dir Wind Speed Gust Speed Precip Events Conditions
12:58 AM 95.5 °F 95.6 °F 60.1 °F 31% 29.72 in 10.0 mi SW 10.4 mph - N/A   Clear
1:58 AM 94.8 °F 94.5 °F 59.4 °F 31% 29.72 in 10.0 mi SSW 11.5 mph - N/A   Clear
2:58 AM 93.7 °F 93.3 °F 59.4 °F 32% 29.72 in 10.0 mi SW 10.4 mph - N/A   Clear
3:58 AM 91.6 °F 91.0 °F 59.2 °F 34% 29.74 in 10.0 mi Calm Calm - N/A   Clear
4:58 AM 91.9 °F 90.8 °F 57.7 °F 32% 29.76 in 10.0 mi SW 9.2 mph - N/A   Clear
6:58 AM 92.1 °F 90.2 °F 55.2 °F 29% 29.82 in 10.0 mi SSW 11.5 mph - N/A   Clear
7:58 AM 94.8 °F 93.1 °F 55.6 °F 27% 29.83 in 10.0 mi SW 13.8 mph - N/A   Clear
8:07 AM 95.0 °F 93.0 °F 55.4 °F 26% 29.84 in 10.0 mi SW 13.8 mph - N/A   Light Drizzle
8:15 AM 96.8 °F 95.1 °F 55.4 °F 25% 29.83 in 10.0 mi SW 16.1 mph - N/A   Partly Cloudy
8:58 AM 98.4 °F - 52.9 °F 22% 29.85 in 10.0 mi SW 11.5 mph - 0.00 in   Clear
9:58 AM 101.5 °F - 51.4 °F 19% 29.87 in 10.0 mi SW 15.0 mph - N/A   Clear
10:58 AM 102.7 °F - 52.5 °F 19% 29.87 in 10.0 mi SW 13.8 mph - N/A   Clear
11:58 AM 104.2 °F 103.1 °F 55.0 °F 20% 29.86 in 10.0 mi WSW 12.7 mph - N/A   Clear
12:58 PM 105.8 °F 106.1 °F 57.7 °F 21% 29.83 in 10.0 mi SSW 10.4 mph 19.6 mph N/A   Partly Cloudy
1:58 PM 106.3 °F 106.3 °F 58.1 °F 20% 29.79 in 10.0 mi WSW 12.7 mph - N/A   Clear
2:36 PM 107.6 °F 108.2 °F 59.0 °F 20% 29.77 in 10.0 mi West 15.0 mph 20.7 mph N/A   Clear
2:58 PM 107.1 °F 108.1 °F 58.8 °F 21% 29.75 in 10.0 mi SW 15.0 mph 23.0 mph N/A   Clear
2:59 PM 107.6 °F 108.2 °F 59.0 °F 20% 29.76 in 10.0 mi SSW 15.0 mph 23.0 mph N/A   Clear
3:58 PM 107.4 °F 107.9 °F 59.0 °F 20% 29.73 in 10.0 mi WSW 11.5 mph 18.4 mph N/A   Clear
4:45 PM 105.8 °F 106.8 °F 59.0 °F 22% 29.71 in 10.0 mi WSW 13.8 mph 21.9 mph N/A   Clear
4:58 PM 106.7 °F 107.5 °F 59.7 °F 21% 29.72 in 10.0 mi West 16.1 mph 19.6 mph N/A   Clear
5:58 PM 106.0 °F 108.6 °F 61.7 °F 24% 29.71 in 10.0 mi West 12.7 mph - N/A   Clear
6:58 PM 104.2 °F 106.3 °F 61.3 °F 25% 29.73 in 10.0 mi SW 9.2 mph - N/A   Clear
7:58 PM 102.6 °F 103.6 °F 61.0 °F 25% 29.74 in 10.0 mi SW 9.2 mph - N/A   Clear
8:58 PM 101.1 °F 102.4 °F 61.9 °F 27% 29.78 in 10.0 mi SSW 8.1 mph - N/A   Clear
9:16 PM 100.4 °F 101.3 °F 60.8 °F 27% 29.79 in 3.0 mi South 27.6 mph 38.0 mph N/A   Scattered Clouds
9:18 PM 100.4 °F 101.3 °F 60.8 °F 27% 29.80 in 10.0 mi South 28.8 mph 38.0 mph N/A   Scattered Clouds
9:19 PM 100.4 °F 101.3 °F 60.8 °F 27% 29.80 in 10.0 mi SSE 28.8 mph 38.0 mph N/A   Scattered Clouds
9:20 PM 100.4 °F 101.3 °F 60.8 °F 27% 29.80 in 3.0 mi SE 27.6 mph 38.0 mph N/A   Widespread Dust
9:30 PM 95.0 °F 98.5 °F 66.2 °F 39% 29.81 in 3.0 mi SSE 31.1 mph 40.3 mph N/A Thunderstorm Widespread Dust
9:40 PM 91.4 °F 95.4 °F 68.0 °F 46% 29.84 in 4.0 mi SE 28.8 mph 38.0 mph N/A Thunderstorm Haze
9:47 PM 89.6 °F 92.2 °F 66.2 °F 46% 29.88 in 5.0 mi ESE 27.6 mph 39.1 mph N/A Thunderstorm Unknown
9:52 PM 89.6 °F 93.4 °F 68.0 °F 49% 29.88 in 4.0 mi East 34.5 mph 40.3 mph N/A Rain , Thunderstorm Light Thunderstorms and Rain
9:59 PM 86.0 °F 90.7 °F 70.3 °F 59% 29.91 in 3.0 mi East 31.1 mph 41.4 mph 0.00 in Rain , Thunderstorm Light Thunderstorms and Rain
10:09 PM 78.8 °F - 71.6 °F 78% 29.95 in 10.0 mi ENE 34.5 mph 39.1 mph N/A Rain , Thunderstorm Light Thunderstorms and Rain
10:16 PM 77.0 °F - 69.8 °F 78% 29.96 in 10.0 mi NE 25.3 mph 39.1 mph N/A Rain , Thunderstorm Light Rain
10:58 PM 76.8 °F - 73.6 °F 90% 29.97 in 10.0 mi SE 5.8 mph - 0.09 in Rain Light Rain
11:00 PM 77.0 °F - 73.4 °F 89% 29.96 in 10.0 mi SE 5.8 mph - N/A Thunderstorm Overcast
11:20 PM 78.8 °F - 73.4 °F 83% 29.96 in 10.0 mi WNW 8.1 mph - N/A Thunderstorm Scattered Clouds
11:58 PM 78.3 °F - 72.3 °F 82% 29.94 in 10.0 mi WNW 4.6 mph - 0.00 in   Clear